FW6750 Weather Reports


Display with metric or nautical units.
time (UTC)temp
F
wind
direction
speed
MPH
gust
MPH
rain 1hr
in
rain 24hr
in
rain mn
in
humidity
%
barometer
mb
20260510160549 92 175 4.0 9.0 0.00 0.00 0.00 61 1016.8
20260510155552 88 219 1.0 9.0 0.00 0.00 0.00 65 1016.8
20260510155052 87 261 2.0 9.0 0.00 0.00 0.00 67 1016.8
20260510154604 87 271 1.0 4.0 0.00 0.00 0.00 70 1016.9
20260510154053 85 232 0.0 9.0 0.00 0.00 0.00 74 1017.0
20260510153552 86 281 4.0 9.0 0.00 0.00 0.00 69 1016.9
20260510153051 86 281 2.0 6.0 0.00 0.00 0.00 69 1017.0
20260510152552 87 268 1.0 8.0 0.00 0.00 0.00 67 1017.1
20260510152049 87 223 2.0 8.0 0.00 0.00 0.00 67 1017.0
20260510151550 87 178 2.0 8.0 0.00 0.00 0.00 66 1016.9
20260510151049 87 0 2.0 8.0 0.00 0.00 0.00 67 1016.9
20260510150552 88 210 2.0 8.0 0.00 0.00 0.00 69 1017.0
20260510150053 86 190 1.0 5.0 0.00 0.00 0.00 71 1017.0
20260510145552 86 219 2.0 6.0 0.00 0.00 0.00 70 1017.1
20260510145050 85 171 2.0 6.0 0.00 0.00 0.00 72 1017.1
20260510144609 85 292 1.0 8.0 0.00 0.00 0.00 72 1017.1
20260510144053 85 222 2.0 8.0 0.00 0.00 0.00 73 1017.1
20260510143549 84 243 1.0 6.0 0.00 0.00 0.00 74 1017.0
20260510143055 84 180 2.0 6.0 0.00 0.00 0.00 76 1017.0
20260510142551 84 298 2.0 6.0 0.00 0.00 0.00 75 1017.0
20260510142049 84 211 2.0 5.0 0.00 0.00 0.00 75 1016.9
20260510141553 83 210 1.0 4.0 0.00 0.00 0.00 78 1016.8
20260510141053 82 269 2.0 4.0 0.00 0.00 0.00 80 1016.8
20260510140555 81 192 1.0 4.0 0.00 0.00 0.00 81 1016.8
20260510140053 81 202 1.0 4.0 0.00 0.00 0.00 81 1016.8
20260510135552 82 185 2.0 5.0 0.00 0.00 0.00 80 1016.8
20260510135052 82 202 2.0 6.0 0.00 0.00 0.00 79 1016.8
20260510134555 82 182 1.0 6.0 0.00 0.00 0.00 78 1016.8
20260510134050 82 195 1.0 4.0 0.00 0.00 0.00 78 1016.7
20260510133554 81 205 2.0 4.0 0.00 0.00 0.00 79 1016.7
20260510133053 80 211 2.0 4.0 0.00 0.00 0.00 80 1016.7
20260510132552 80 207 1.0 6.0 0.00 0.00 0.00 80 1016.7
20260510132056 80 184 1.0 6.0 0.00 0.00 0.00 80 1016.6
20260510131552 80 164 3.0 6.0 0.00 0.00 0.00 82 1016.4
20260510131051 79 180 2.0 6.0 0.00 0.00 0.00 84 1016.4
20260510130549 78 177 2.0 6.0 0.00 0.00 0.00 86 1016.5
20260510130050 77 170 1.0 4.0 0.00 0.00 0.00 88 1016.6
20260510125549 76 170 1.0 5.0 0.00 0.00 0.00 89 1016.6
20260510125052 75 170 2.0 5.0 0.00 0.00 0.00 90 1016.6
20260510124604 75 164 2.0 5.0 0.00 0.00 0.00 91 1016.6
20260510124053 74 360 1.0 3.0 0.00 0.00 0.00 91 1016.7
20260510123553 74 360 0.0 2.0 0.00 0.00 0.00 92 1016.6
20260510123055 73 0 0.0 2.0 0.00 0.00 0.00 92 1016.4
20260510122552 73 360 0.0 2.0 0.00 0.00 0.00 92 1016.3
20260510122052 73 0 0.0 2.0 0.00 0.00 0.00 92 1016.3
20260510121554 73 0 0.0 2.0 0.00 0.00 0.00 93 1016.2
20260510121054 72 0 0.0 1.0 0.00 0.00 0.00 93 1016.2
20260510120552 72 0 0.0 1.0 0.00 0.00 0.00 93 1016.2
20260510120105 72 0 0.0 1.0 0.00 0.00 0.00 93 1016.1
20260510115552 72 0 0.0 1.0 0.00 0.00 0.00 93 1015.9
20260510115049 72 0 0.0 0.0 0.00 0.00 0.00 93 1015.8
20260510114551 71 0 0.0 0.0 0.00 0.00 0.00 93 1015.7
20260510114051 71 0 0.0 0.0 0.00 0.00 0.00 93 1015.6
20260510113548 70 0 0.0 1.0 0.00 0.00 0.00 93 1015.5
20260510113052 70 0 0.0 2.0 0.00 0.00 0.00 93 1015.4
20260510112553 70 0 1.0 2.0 0.00 0.00 0.00 92 1015.3
20260510112049 70 0 0.0 1.0 0.00 0.00 0.00 93 1015.3
20260510111551 70 0 0.0 0.0 0.00 0.00 0.00 93 1015.2
20260510111052 70 0 0.0 0.0 0.00 0.00 0.00 92 1015.2
20260510110555 70 0 0.0 0.0 0.00 0.00 0.00 92 1015.1
20260510110055 70 0 0.0 0.0 0.00 0.00 0.00 92 1015.1
20260510105552 70 0 0.0 0.0 0.00 0.00 0.00 92 1015.0
20260510105051 70 0 0.0 0.0 0.00 0.00 0.00 92 1014.9
20260510104601 70 0 0.0 0.0 0.00 0.00 0.00 92 1014.9
20260510104052 70 0 0.0 0.0 0.00 0.00 0.00 92 1014.7
20260510103552 70 0 0.0 0.0 0.00 0.00 0.00 92 1014.7
20260510103052 70 0 0.0 1.0 0.00 0.00 0.00 92 1014.7
20260510102552 70 0 0.0 1.0 0.00 0.00 0.00 92 1014.7
20260510102051 70 0 0.0 1.0 0.00 0.00 0.00 92 1014.6
20260510101551 70 0 0.0 0.0 0.00 0.00 0.00 92 1014.6
20260510101051 70 0 0.0 0.0 0.00 0.00 0.00 92 1014.6
20260510100549 70 0 0.0 0.0 0.00 0.00 0.00 92 1014.5
20260510100052 70 0 0.0 0.0 0.00 0.00 0.00 92 1014.4
20260510095549 70 0 0.0 0.0 0.00 0.00 0.00 91 1014.4
20260510095052 70 0 0.0 1.0 0.00 0.00 0.00 91 1014.4
20260510094603 70 0 0.0 1.0 0.00 0.00 0.00 91 1014.4
20260510094054 70 158 0.0 1.0 0.00 0.00 0.00 91 1014.4
20260510093548 70 0 0.0 0.0 0.00 0.00 0.00 91 1014.3
20260510093112 70 0 0.0 0.0 0.00 0.00 0.00 91 1014.2
20260510092551 71 0 0.0 0.0 0.00 0.00 0.00 91 1014.2
20260510092051 71 0 0.0 0.0 0.00 0.00 0.00 91 1014.1
20260510091553 71 0 0.0 0.0 0.00 0.00 0.00 91 1014.1
20260510091052 71 0 0.0 0.0 0.00 0.00 0.00 91 1014.1
20260510090552 71 0 0.0 0.0 0.00 0.00 0.00 91 1014.1
20260510090052 71 0 0.0 0.0 0.00 0.00 0.00 91 1013.9
20260510085552 71 0 0.0 0.0 0.00 0.00 0.00 91 1013.9
20260510085051 71 0 0.0 1.0 0.00 0.00 0.00 90 1013.8
20260510084600 71 0 0.0 1.0 0.00 0.00 0.00 90 1013.8
20260510084052 71 0 0.0 0.0 0.00 0.00 0.00 90 1013.8
20260510083551 72 0 0.0 0.0 0.00 0.00 0.00 90 1013.7
20260510083059 72 0 0.0 0.0 0.00 0.00 0.00 90 1013.7
20260510082550 72 0 0.0 1.0 0.00 0.00 0.00 90 1013.7
20260510082050 72 0 0.0 1.0 0.00 0.00 0.00 89 1013.7
20260510081553 72 0 0.0 1.0 0.00 0.00 0.00 89 1013.6
20260510081054 72 0 0.0 2.0 0.00 0.00 0.00 89 1013.6
20260510080553 72 0 0.0 3.0 0.00 0.00 0.00 89 1013.6
20260510080052 73 158 0.0 5.0 0.00 0.00 0.00 89 1013.6
20260510075550 73 158 1.0 5.0 0.00 0.00 0.00 89 1013.7
20260510075050 73 158 2.0 5.0 0.00 0.00 0.00 89 1013.6
20260510074550 73 158 2.0 5.0 0.00 0.00 0.00 89 1013.6
20260510074050 73 157 2.0 5.0 0.00 0.00 0.00 89 1013.6
20260510073550 73 157 1.0 3.0 0.00 0.00 0.00 89 1013.6
20260510073052 73 156 1.0 6.0 0.00 0.00 0.00 89 1013.6
20260510072552 73 156 2.0 6.0 0.00 0.00 0.00 89 1013.6
20260510072050 73 165 2.0 6.0 0.00 0.00 0.00 89 1013.5
20260510071554 73 175 3.0 6.0 0.00 0.00 0.00 89 1013.4
20260510071049 73 163 3.0 6.0 0.00 0.00 0.00 89 1013.3
20260510070552 73 157 4.0 6.0 0.00 0.00 0.00 89 1013.5
20260510070056 73 161 3.0 6.0 0.00 0.00 0.00 89 1013.7
20260510065553 73 157 2.0 6.0 0.00 0.00 0.00 89 1013.6
20260510065051 73 151 3.0 7.0 0.00 0.00 0.00 89 1013.7
20260510064549 72 158 3.0 7.0 0.00 0.00 0.00 89 1013.7
20260510064051 72 163 2.0 7.0 0.00 0.00 0.00 89 1013.7
20260510063553 72 160 3.0 8.0 0.00 0.00 0.00 89 1013.8
20260510063051 72 158 4.0 8.0 0.00 0.00 0.00 89 1013.9
20260510062551 72 156 3.0 6.0 0.00 0.00 0.00 89 1014.0
20260510062050 72 157 2.0 6.0 0.00 0.00 0.00 89 1014.1
20260510061553 72 160 2.0 6.0 0.00 0.00 0.00 89 1014.1
20260510061050 72 166 2.0 5.0 0.00 0.00 0.00 88 1014.2
20260510060550 72 172 1.0 5.0 0.00 0.00 0.00 88 1014.3
20260510060053 72 172 1.0 5.0 0.00 0.00 0.00 88 1014.4
20260510055550 72 173 1.0 3.0 0.00 0.00 0.00 88 1014.5
20260510055050 72 173 1.0 3.0 0.00 0.00 0.00 88 1014.6
20260510054551 72 173 1.0 3.0 0.00 0.00 0.00 88 1014.6
20260510054050 72 175 1.0 2.0 0.00 0.00 0.00 88 1014.7
20260510053549 72 175 1.0 2.0 0.00 0.00 0.00 88 1014.9
20260510053101 72 175 0.0 2.0 0.00 0.00 0.00 88 1014.9
20260510052549 72 0 0.0 2.0 0.00 0.00 0.00 88 1015.0
20260510052050 72 175 0.0 2.0 0.00 0.00 0.00 88 1015.0
20260510051553 72 175 0.0 2.0 0.00 0.00 0.00 88 1015.0
20260510051107 72 0 0.0 1.0 0.00 0.00 0.00 88 1015.1
20260510050553 72 175 0.0 1.0 0.00 0.00 0.00 87 1015.2
20260510050055 72 0 0.0 1.0 0.00 0.00 0.00 87 1015.2
20260510045550 72 0 0.0 0.0 0.00 0.00 0.00 87 1015.3
20260510045050 72 0 0.0 1.0 0.00 0.00 0.00 87 1015.3
20260510044554 72 0 0.0 2.0 0.00 0.00 0.00 87 1015.3
20260510044051 72 0 0.0 2.0 0.00 0.00 0.00 87 1015.4
20260510043550 72 175 0.0 2.0 0.00 0.00 0.00 87 1015.4
20260510043101 72 0 0.0 0.0 0.00 0.00 0.00 87 1015.5
20260510042549 72 0 0.0 0.0 0.00 0.00 0.00 87 1015.6
20260510042054 72 0 0.0 0.0 0.00 0.00 0.00 87 1015.6
20260510041558 72 0 0.0 0.0 0.00 0.00 0.00 86 1015.6
20260510041050 72 0 0.0 1.0 0.00 0.00 0.00 86 1015.6
20260510040549 73 0 0.0 2.0 0.00 0.00 0.00 86 1015.6
20260510040055 73 0 0.0 2.0 0.00 0.00 0.00 86 1015.6
20260510035549 73 175 0.0 1.0 0.00 0.00 0.00 86 1015.6
20260510035052 73 0 0.0 0.0 0.00 0.00 0.00 85 1015.6
20260510034559 73 0 0.0 0.0 0.00 0.00 0.00 85 1015.7
20260510034050 73 0 0.0 0.0 0.00 0.00 0.00 85 1015.7
20260510033551 73 0 0.0 0.0 0.00 0.00 0.00 85 1015.6
20260510033104 73 0 0.0 1.0 0.00 0.00 0.00 85 1015.6
20260510032550 74 0 0.0 1.0 0.00 0.00 0.00 85 1015.6
20260510032050 74 0 0.0 2.0 0.00 0.00 0.00 85 1015.6
20260510031553 74 0 0.0 2.0 0.00 0.00 0.00 85 1015.5
20260510031051 74 0 0.0 2.0 0.00 0.00 0.00 85 1015.7
20260510030550 74 360 0.0 1.0 0.00 0.00 0.00 85 1015.5
20260510025550 74 360 0.0 2.0 0.00 0.00 0.00 85 1015.5
20260510025049 74 360 0.0 1.0 0.00 0.00 0.00 85 1015.4
20260510024552 74 0 0.0 1.0 0.00 0.00 0.00 85 1015.3
20260510024049 73 0 0.0 1.0 0.00 0.00 0.00 85 1015.3
20260510023552 73 0 0.0 2.0 0.00 0.00 0.00 85 1015.4
20260510023051 73 0 0.0 2.0 0.00 0.00 0.00 85 1015.3
20260510022551 73 0 0.0 2.0 0.00 0.00 0.00 85 1015.2
20260510022050 73 0 0.0 2.0 0.00 0.00 0.00 85 1015.2
20260510021554 73 0 0.0 2.0 0.00 0.00 0.00 85 1015.0
20260510021050 73 0 1.0 2.0 0.00 0.00 0.00 85 1015.0
20260510020551 73 360 0.0 2.0 0.00 0.00 0.00 85 1015.0
20260510020054 73 360 0.0 2.0 0.00 0.00 0.00 85 1014.8
20260510015551 73 0 0.0 2.0 0.00 0.00 0.00 85 1014.7
20260510015050 73 0 0.0 2.0 0.00 0.00 0.00 85 1014.7
20260510014556 73 360 1.0 2.0 0.00 0.00 0.00 85 1014.8
20260510014050 73 0 0.0 3.0 0.00 0.00 0.00 85 1014.7
20260510013550 74 0 0.0 3.0 0.00 0.00 0.00 85 1014.7
20260510013054 74 360 1.0 3.0 0.00 0.00 0.00 85 1014.6
20260510012550 74 360 1.0 3.0 0.00 0.00 0.00 85 1014.4
20260510012050 74 360 0.0 2.0 0.00 0.00 0.00 85 1014.5
20260510011555 74 0 0.0 2.0 0.00 0.00 0.00 84 1014.6
20260510011049 74 0 0.0 3.0 0.00 0.00 0.00 84 1014.6
20260510010551 74 360 0.0 3.0 0.00 0.00 0.00 84 1014.5
20260510010051 74 360 0.0 1.0 0.00 0.00 0.00 83 1014.3
20260510005552 74 0 0.0 3.0 0.00 0.00 0.00 83 1014.1
20260510005051 74 0 1.0 3.0 0.00 0.00 0.00 83 1014.3
20260510004553 74 360 0.0 5.0 0.00 0.00 0.00 82 1014.1
20260510004051 74 0 1.0 5.0 0.00 0.00 0.00 82 1014.0
20260510003550 74 360 2.0 5.0 0.00 0.00 0.00 81 1013.9
20260510003049 74 360 2.0 5.0 0.00 0.00 0.00 81 1014.0
20260510002551 75 360 1.0 5.0 0.00 0.00 0.00 81 1013.8
20260510002050 75 360 2.0 5.0 0.00 0.00 0.00 81 1013.9
20260510001553 75 360 3.0 6.0 0.00 0.00 0.00 80 1014.0
20260510001051 75 360 2.0 8.0 0.00 0.00 0.00 80 1014.0
20260510000554 75 360 2.0 8.0 0.00 0.00 0.00 80 1014.0
20260510000059 75 360 3.0 8.0 0.00 0.00 0.00 80 1014.0
20260509235553 75 360 2.0 6.0 0.00 0.00 0.00 80 1013.9
20260509235050 75 360 2.0 6.0 0.00 0.00 0.00 80 1014.0
20260509234554 75 360 1.0 8.0 0.00 0.00 0.00 80 1013.9
20260509234050 76 360 2.0 8.0 0.00 0.00 0.00 79 1013.9
20260509233549 76 360 4.0 9.0 0.00 0.00 0.00 79 1013.6
20260509233056 76 360 4.0 12.0 0.00 0.00 0.00 79 1013.7
20260509232553 76 360 4.0 12.0 0.00 0.00 0.00 79 1013.7
20260509232052 76 360 5.0 12.0 0.00 0.00 0.00 78 1013.8
20260509231557 76 360 5.0 12.0 0.00 0.00 0.00 79 1013.9
20260509231049 76 360 3.0 10.0 0.00 0.00 0.00 78 1014.0
20260509230549 76 360 4.0 12.0 0.00 0.00 0.00 78 1014.0
20260509230058 76 360 6.0 12.0 0.00 0.00 0.00 78 1014.0
20260509225551 77 360 6.0 10.0 0.00 0.00 0.00 78 1014.0
20260509225050 77 360 4.0 10.0 0.00 0.00 0.00 78 1013.9
20260509224558 77 360 4.0 13.0 0.00 0.00 0.00 78 1013.8
20260509224051 77 360 4.0 14.0 0.00 0.00 0.00 78 1013.8
20260509223553 78 360 5.0 14.0 0.00 0.00 0.00 77 1014.0
20260509223101 79 360 4.0 12.0 0.00 0.00 0.00 77 1013.9
20260509222551 79 360 5.0 12.0 0.00 0.00 0.00 77 1013.7
20260509222050 80 360 3.0 10.0 0.00 0.00 0.00 76 1013.6
20260509221555 81 360 4.0 10.0 0.00 0.00 0.00 74 1013.4
20260509221051 82 360 2.0 6.0 0.00 0.00 0.00 73 1013.2
20260509220549 82 360 2.0 8.0 0.00 0.00 0.00 72 1013.2
20260509220051 82 360 2.0 8.0 0.00 0.00 0.00 71 1013.2
20260509215552 82 360 3.0 8.0 0.00 0.00 0.00 71 1013.3
20260509215051 82 360 3.0 9.0 0.00 0.00 0.00 71 1013.2
20260509214624 82 360 2.0 9.0 0.00 0.00 0.00 71 1013.1
20260509214049 82 360 3.0 8.0 0.00 0.00 0.00 70 1013.0
20260509213549 83 360 3.0 6.0 0.00 0.00 0.00 70 1013.0
20260509213056 83 360 2.0 11.0 0.00 0.00 0.00 69 1012.9
20260509212551 83 360 3.0 11.0 0.00 0.00 0.00 69 1012.9
20260509212051 83 360 3.0 9.0 0.00 0.00 0.00 69 1012.9
20260509211555 83 298 3.0 10.0 0.00 0.00 0.00 69 1012.9
20260509211051 83 264 3.0 10.0 0.00 0.00 0.00 69 1012.8
20260509210549 83 290 4.0 10.0 0.00 0.00 0.00 69 1012.7
20260509210107 84 314 4.0 9.0 0.00 0.00 0.00 68 1012.7
20260509205550 84 287 4.0 11.0 0.00 0.00 0.00 68 1012.8
20260509205050 84 296 5.0 11.0 0.00 0.00 0.00 68 1012.8
20260509204554 85 287 3.0 10.0 0.00 0.00 0.00 68 1012.8
20260509204050 84 310 3.0 12.0 0.00 0.00 0.00 70 1012.9
20260509203551 84 5 5.0 12.0 0.00 0.00 0.00 70 1012.8
20260509203105 84 321 6.0 12.0 0.00 0.00 0.00 70 1012.8
20260509202549 84 331 3.0 10.0 0.00 0.00 0.00 70 1012.7
20260509202050 84 297 4.0 10.0 0.00 0.00 0.00 70 1012.7
20260509201556 84 281 4.0 11.0 0.00 0.00 0.00 69 1012.7
20260509201053 84 282 5.0 11.0 0.00 0.00 0.00 69 1012.8
20260509200551 84 325 4.0 10.0 0.00 0.00 0.00 69 1012.8
20260509200058 84 310 4.0 12.0 0.00 0.00 0.00 70 1012.9
20260509195550 84 288 5.0 12.0 0.00 0.00 0.00 68 1012.8
20260509195052 85 275 5.0 11.0 0.00 0.00 0.00 67 1012.9
20260509194554 85 319 6.0 13.0 0.00 0.00 0.00 65 1012.8
20260509194051 85 277 2.0 13.0 0.00 0.00 0.00 65 1012.8
20260509193551 85 266 5.0 13.0 0.00 0.00 0.00 64 1012.8
20260509193058 85 222 6.0 12.0 0.00 0.00 0.00 64 1012.8
20260509192553 85 254 5.0 12.0 0.00 0.00 0.00 65 1012.7
20260509192053 85 266 2.0 15.0 0.00 0.00 0.00 66 1012.9
20260509191600 85 0 8.0 15.0 0.00 0.00 0.00 65 1012.9
20260509191053 86 290 5.0 12.0 0.00 0.00 0.00 66 1013.2
20260509190551 86 271 3.0 14.0 0.00 0.00 0.00 66 1013.1
20260509190056 86 288 5.0 16.0 0.00 0.00 0.00 66 1013.2
20260509185550 86 310 6.0 16.0 0.00 0.00 0.00 65 1013.2
20260509185050 86 286 7.0 13.0 0.00 0.00 0.00 65 1013.1
20260509184559 86 265 4.0 12.0 0.00 0.00 0.00 65 1013.1
20260509184049 86 273 2.0 12.0 0.00 0.00 0.00 64 1013.0
20260509183552 87 196 2.0 12.0 0.00 0.00 0.00 63 1013.1
20260509183058 86 269 3.0 11.0 0.00 0.00 0.00 63 1013.1
20260509182553 86 286 3.0 7.0 0.00 0.00 0.00 67 1013.2
20260509182049 85 221 1.0 5.0 0.00 0.00 0.00 68 1013.2
20260509181549 85 304 2.0 8.0 0.00 0.00 0.00 71 1013.2
20260509181052 86 348 2.0 9.0 0.00 0.00 0.00 70 1013.1
20260509180552 86 323 3.0 9.0 0.00 0.00 0.00 67 1013.2
20260509180055 86 294 4.0 9.0 0.00 0.00 0.00 68 1013.4
20260509175551 86 290 3.0 11.0 0.00 0.00 0.00 68 1013.3
20260509175052 85 292 2.0 11.0 0.00 0.00 0.00 69 1013.4
20260509174603 87 340 4.0 9.0 0.00 0.00 0.00 67 1013.6
20260509174049 88 306 2.0 9.0 0.00 0.00 0.00 66 1013.4
20260509173549 87 311 6.0 11.0 0.00 0.00 0.00 65 1013.5
20260509173052 87 265 4.0 11.0 0.00 0.00 0.00 65 1013.6
20260509172550 88 259 3.0 10.0 0.00 0.00 0.00 64 1013.6
20260509172050 88 343 2.0 9.0 0.00 0.00 0.00 64 1013.5
20260509171555 88 36 3.0 7.0 0.00 0.00 0.00 63 1013.5
20260509171051 88 287 2.0 6.0 0.00 0.00 0.00 65 1013.5
20260509170551 88 254 0.0 6.0 0.00 0.00 0.00 66 1013.6
20260509170059 88 278 1.0 7.0 0.00 0.00 0.00 63 1013.7
20260509165550 89 173 3.0 7.0 0.00 0.00 0.00 64 1013.7
20260509165051 88 162 1.0 8.0 0.00 0.00 0.00 64 1013.8
20260509164612 88 267 1.0 8.0 0.00 0.00 0.00 65 1013.9
20260509164048 89 284 3.0 8.0 0.00 0.00 0.00 65 1014.0
20260509163552 88 223 2.0 7.0 0.00 0.00 0.00 64 1014.0
20260509163101 87 196 1.0 7.0 0.00 0.00 0.00 67 1014.0
20260509162551 86 123 0.0 4.0 0.00 0.00 0.00 68 1014.0
20260509162049 87 238 1.0 4.0 0.00 0.00 0.00 68 1014.0
20260509161554 86 182 1.0 5.0 0.00 0.00 0.00 69 1014.0
20260509161053 86 176 1.0 5.0 0.00 0.00 0.00 69 1014.0